Location: Nairn
(57.5833°N, 3.8667°W)
Time: 17:09:32
(UTC+00:00)

Cosmos 1743 - Pass Details

Date: 07 August 2020
Orbit: 509 x 528 km, 82.5° (Epoch: 22 September)

Event Time Altitude Azimuth Distance (km) Brightness Sun altitude
Exits shadow 00:41:41 30° 208° (SSW) 959 3.5 -16.0°
Maximum altitude 00:43:28 69° 284° (WNW) 571 2.9 -15.9°
Drops below altitude 10° 00:47:23 10° 9° (N) 1,790 6.8 -15.9°
Sets 00:49:34 0° 12° (NNE) 2,685 8.2 -15.8°
